User: anonymous   Login
Location: Devargunta
(16.7631°N, 80.9077°E)
Time: 19:55:12
(UTC+00:00)
Language:

Cosmos 540 Rocket - Orbit

View from above orbital plane
View from above orbital plane
View from above satellite
View from above satellite

Ground track
Ground track

The orbit data is extracted from the following two-line orbital elements,

1 06324U 72104B   22221.73460194  .00000275  00000-0  88673-4 0  9992
2 06324  74.0756 222.2103 0010241 241.9067 118.1056 14.43660461606509
Epoch (UTC): 09 August 2022 17:37:49
Eccentricity: 0.0010241
inclination: 74.0756°
perigee height: 739 km
apogee height: 754 km
right ascension of ascending node: 222.2103°
argument of perigee: 241.9067°
revolutions per day: 14.43660461
mean anomaly at epoch: 118.1056°
orbit number at epoch: 60650

The dashed part of the orbit path shows where the satellite is in the earth's shadow,  

DLR